�������l�o���
Date,Time,MP-1(��Sv/h),MP-2(��Sv/h),MP-3(��Sv/h),MP-4(��Sv/h),MP-5(��Sv/h),MP-6(��Sv/h),MP-7(��Sv/h),MP-8(��Sv/h),����,����(m/s),���J
2020/01/24,00:00,0.693,0.985,0.654,1.237,0.866,0.398,0.697,0.663,�k�k��,6.7,��
2020/01/24,00:10,0.692,0.983,0.651,1.239,0.866,0.398,0.698,0.663,�k�k��,6.3,��
2020/01/24,00:20,0.691,0.982,0.650,1.238,0.865,0.396,0.698,0.664,�k�k��,7.1,��
2020/01/24,00:30,0.690,0.982,0.653,1.238,0.864,0.397,0.698,0.662,�k�k��,5.8,��
2020/01/24,00:40,0.692,0.984,0.652,1.238,0.863,0.397,0.699,0.666,�k�k��,5.8,��
2020/01/24,00:50,0.691,0.984,0.653,1.238,0.865,0.396,0.699,0.663,�k�k��,5.8,��
2020/01/24,01:00,0.693,0.983,0.653,1.237,0.867,0.396,0.698,0.665,�k�k��,5.8,��
2020/01/24,01:10,0.693,0.983,0.652,1.240,0.867,0.398,0.698,0.664,�k�k��,5.2,��
2020/01/24,01:20,0.692,0.982,0.653,1.240,0.866,0.396,0.698,0.664,�k�k��,4.7,��
2020/01/24,01:30,0.692,0.985,0.652,1.234,0.866,0.397,0.698,0.663,�k�k��,3.9,��
2020/01/24,01:40,0.691,0.986,0.652,1.239,0.865,0.398,0.697,0.662,�k�k��,3.2,��
2020/01/24,01:50,0.693,0.985,0.652,1.237,0.866,0.398,0.699,0.663,�k�k��,3.4,��
2020/01/24,02:00,0.692,0.984,0.652,1.240,0.867,0.401,0.697,0.664,�k��,3.1,��
2020/01/24,02:10,0.691,0.983,0.652,1.240,0.869,0.397,0.698,0.664,�k�k��,2.7,��
2020/01/24,02:20,0.693,0.985,0.654,1.240,0.867,0.398,0.697,0.665,�k��,2.7,��
2020/01/24,02:30,0.693,0.984,0.653,1.240,0.865,0.398,0.699,0.665,�k��,2.8,��
2020/01/24,02:40,0.690,0.984,0.654,1.240,0.865,0.398,0.697,0.666,�k�k��,3.4,��
2020/01/24,02:50,0.692,0.984,0.653,1.240,0.864,0.398,0.697,0.664,�k�k��,3.2,��
2020/01/24,03:00,0.692,0.986,0.654,1.240,0.866,0.397,0.697,0.665,�k��,3.3,��
2020/01/24,03:10,0.691,0.985,0.653,1.240,0.867,0.397,0.698,0.663,�k�k��,2.9,��
2020/01/24,03:20,0.691,0.985,0.652,1.239,0.868,0.398,0.699,0.663,�k�k��,3.0,��
2020/01/24,03:30,0.692,0.983,0.653,1.239,0.867,0.397,0.697,0.664,�k�k��,3.2,��
2020/01/24,03:40,0.692,0.982,0.652,1.240,0.869,0.398,0.697,0.665,�k��,3.0,��
2020/01/24,03:50,0.693,0.985,0.651,1.240,0.868,0.396,0.697,0.664,�k��,3.3,��
2020/01/24,04:00,0.691,0.985,0.652,1.237,0.866,0.398,0.698,0.663,�k�k��,3.0,��
2020/01/24,04:10,0.692,0.983,0.653,1.237,0.866,0.398,0.698,0.664,�k�k��,2.4,��
2020/01/24,04:20,0.691,0.983,0.651,1.237,0.865,0.397,0.697,0.665,�k�k��,1.9,��
2020/01/24,04:30,0.691,0.983,0.652,1.237,0.868,0.397,0.698,0.664,�k�k��,1.6,��
2020/01/24,04:40,0.691,0.985,0.653,1.237,0.867,0.397,0.698,0.663,�k��,1.7,��
2020/01/24,04:50,0.693,0.982,0.653,1.239,0.866,0.396,0.698,0.664,�k��,1.3,��
2020/01/24,05:00,0.692,0.983,0.652,1.239,0.867,0.397,0.698,0.663,�k��,0.7,��
2020/01/24,05:10,0.691,0.982,0.653,1.239,0.866,0.397,0.696,0.663,�k��,1.5,��
2020/01/24,05:20,0.691,0.982,0.651,1.241,0.867,0.397,0.698,0.663,���k��,2.0,��
2020/01/24,05:30,0.691,0.984,0.653,1.240,0.866,0.397,0.697,0.663,���k��,2.1,��
2020/01/24,05:40,0.690,0.982,0.654,1.239,0.868,0.396,0.698,0.663,�k��,1.3,��
2020/01/24,05:50,0.692,0.984,0.652,1.239,0.866,0.399,0.698,0.664,�k��,1.6,��
2020/01/24,06:00,0.690,0.984,0.652,1.239,0.867,0.398,0.698,0.664,���k��,2.1,��
2020/01/24,06:10,0.692,0.983,0.650,1.237,0.865,0.396,0.697,0.663,�k��,2.4,��
2020/01/24,06:20,0.691,0.980,0.651,1.240,0.867,0.396,0.698,0.663,�k��,3.2,��
2020/01/24,06:30,0.692,0.983,0.652,1.240,0.863,0.397,0.697,0.664,�k��,3.1,��
2020/01/24,06:40,0.692,0.983,0.651,1.241,0.866,0.397,0.697,0.664,�k��,3.4,��
2020/01/24,06:50,0.692,0.982,0.651,1.240,0.866,0.397,0.698,0.663,���k��,3.2,��
2020/01/24,07:00,0.692,0.984,0.652,1.238,0.866,0.398,0.697,0.662,���k��,2.2,��
2020/01/24,07:10,0.690,0.982,0.652,1.240,0.866,0.397,0.696,0.663,�k��,2.5,��
2020/01/24,07:20,0.691,0.983,0.651,1.242,0.866,0.398,0.696,0.664,�k��,1.8,��
2020/01/24,07:30,0.691,0.982,0.651,1.241,0.866,0.397,0.698,0.665,�k�k��,2.1,��
2020/01/24,07:40,0.692,0.984,0.651,1.240,0.867,0.397,0.698,0.665,�k��,3.0,��
2020/01/24,07:50,0.690,0.981,0.650,1.240,0.866,0.397,0.699,0.665,���k��,3.9,��
2020/01/24,08:00,0.692,0.982,0.650,1.242,0.867,0.398,0.698,0.664,�k��,3.1,��
2020/01/24,08:10,0.692,0.983,0.651,1.239,0.867,0.398,0.698,0.666,���k��,2.2,��
2020/01/24,08:20,0.692,0.983,0.652,1.239,0.867,0.398,0.698,0.664,���k��,2.6,��
2020/01/24,08:30,0.691,0.985,0.650,1.240,0.865,0.396,0.698,0.665,���k��,3.8,��
2020/01/24,08:40,0.693,0.982,0.651,1.241,0.866,0.396,0.699,0.664,���k��,5.8,��
2020/01/24,08:50,0.694,0.983,0.651,1.240,0.865,0.397,0.698,0.665,���k��,4.6,��
2020/01/24,09:00,0.695,0.982,0.653,1.241,0.866,0.397,0.699,0.663,���k��,4.3,��
2020/01/24,09:10,0.696,0.985,0.650,1.243,0.867,0.398,0.696,0.664,���k��,3.9,��
2020/01/24,09:20,0.695,0.985,0.650,1.241,0.869,0.397,0.693,0.665,���k��,4.9,��
2020/01/24,09:30,0.696,0.984,0.646,1.241,0.868,0.398,0.692,0.666,��,3.0,��
2020/01/24,09:40,0.697,0.985,0.646,1.242,0.869,0.398,0.692,0.667,��,2.7,��
2020/01/24,09:50,0.694,0.985,0.647,1.244,0.869,0.398,0.692,0.667,��,2.5,��
2020/01/24,10:00,0.696,0.984,0.645,1.241,0.869,0.400,0.690,0.664,���쐼,2.9,��
2020/01/24,10:10,0.696,0.983,0.648,1.241,0.871,0.399,0.691,0.666,��,3.8,��
2020/01/24,10:20,0.697,0.981,0.650,1.242,0.870,0.399,0.692,0.665,��,3.0,��
2020/01/24,10:30,0.697,0.983,0.651,1.243,0.871,0.399,0.692,0.669,���k��,3.8,��
2020/01/24,10:40,0.698,0.982,0.650,1.243,0.870,0.399,0.692,0.665,��,2.1,��
2020/01/24,10:50,0.697,0.986,0.649,1.243,0.872,0.399,0.691,0.666,��,5.8,��
2020/01/24,11:00,0.698,0.985,0.649,1.242,0.873,0.397,0.687,0.667,���k��,4.7,��
2020/01/24,11:10,0.699,0.983,0.647,1.244,0.873,0.397,0.690,0.667,���k��,5.5,��
2020/01/24,11:20,0.696,0.984,0.653,1.244,0.871,0.396,0.691,0.667,��,2.9,��
2020/01/24,11:30,0.697,0.986,0.656,1.243,0.872,0.397,0.694,0.666,��,3.8,��
2020/01/24,11:40,0.700,0.983,0.657,1.246,0.871,0.396,0.694,0.668,��,4.6,��
2020/01/24,11:50,0.698,0.984,0.656,1.247,0.873,0.397,0.693,0.667,���쐼,6.7,��
2020/01/24,12:00,0.698,0.986,0.657,1.246,0.869,0.397,0.694,0.667,��,6.3,��
2020/01/24,12:10,0.699,0.989,0.657,1.244,0.871,0.399,0.695,0.668,��,6.7,��
2020/01/24,12:20,0.697,0.988,0.656,1.245,0.870,0.400,0.695,0.667,���쐼,8.6,��
2020/01/24,12:30,0.700,0.989,0.657,1.247,0.872,0.398,0.695,0.666,���쐼,7.1,��
2020/01/24,12:40,0.700,0.988,0.657,1.247,0.872,0.398,0.695,0.667,���쐼,8.2,��
2020/01/24,12:50,0.698,0.987,0.659,1.246,0.869,0.399,0.696,0.668,���쐼,7.4,��
2020/01/24,13:00,0.700,0.987,0.658,1.246,0.872,0.400,0.694,0.667,���쐼,9.9,��
2020/01/24,13:10,0.700,0.989,0.658,1.246,0.872,0.401,0.693,0.666,���쐼,8.9,��
2020/01/24,13:20,0.700,0.987,0.659,1.245,0.872,0.401,0.694,0.665,���쐼,6.9,��
2020/01/24,13:30,0.697,0.985,0.658,1.246,0.873,0.401,0.695,0.667,���쐼,7.7,��
2020/01/24,13:40,0.700,0.985,0.659,1.248,0.872,0.402,0.694,0.667,���쐼,8.0,��
2020/01/24,13:50,0.698,0.988,0.658,1.248,0.875,0.401,0.695,0.667,��,6.7,��
2020/01/24,14:00,0.699,0.988,0.659,1.251,0.872,0.403,0.696,0.665,��,6.4,��
2020/01/24,14:10,0.700,0.987,0.658,1.248,0.874,0.402,0.695,0.668,��,7.1,��
2020/01/24,14:20,0.701,0.991,0.660,1.248,0.877,0.403,0.697,0.665,��,7.2,��
2020/01/24,14:30,0.700,0.988,0.659,1.248,0.873,0.403,0.696,0.665,���쐼,6.7,��
2020/01/24,14:40,0.700,0.989,0.660,1.250,0.874,0.401,0.696,0.666,���쐼,7.1,��
2020/01/24,14:50,0.699,0.989,0.659,1.249,0.874,0.401,0.697,0.665,��,7.7,��
2020/01/24,15:00,0.700,0.991,0.659,1.248,0.877,0.400,0.698,0.664,��,4.9,��
2020/01/24,15:10,0.699,0.993,0.658,1.249,0.876,0.403,0.696,0.665,��,3.3,��
2020/01/24,15:20,0.698,0.991,0.659,1.250,0.877,0.403,0.697,0.666,���쐼,5.2,��
2020/01/24,15:30,0.699,0.994,0.659,1.250,0.878,0.403,0.696,0.666,���쐼,2.7,��
2020/01/24,15:40,0.699,0.994,0.660,1.248,0.877,0.402,0.696,0.668,�k�k��,2.3,��
2020/01/24,15:50,0.700,0.997,0.661,1.251,0.875,0.401,0.697,0.667,�k�k��,2.5,�L
2020/01/24,16:00,0.700,0.995,0.659,1.249,0.876,0.403,0.701,0.667,�k�k��,3.9,�L
2020/01/24,16:10,0.700,0.995,0.659,1.250,0.876,0.404,0.701,0.669,�k�k��,5.3,�L
2020/01/24,16:20,0.700,0.994,0.658,1.251,0.874,0.403,0.701,0.668,�k��,3.9,�L
2020/01/24,16:30,0.699,0.995,0.661,1.250,0.874,0.403,0.701,0.670,�k��,7.7,�L
2020/01/24,16:40,0.702,0.995,0.660,1.249,0.874,0.401,0.701,0.668,�k��,8.3,�L
2020/01/24,16:50,0.701,0.996,0.660,1.249,0.879,0.403,0.701,0.669,�k��,8.3,�L
2020/01/24,17:00,0.700,0.996,0.658,1.251,0.877,0.403,0.701,0.668,�k��,5.3,�L
2020/01/24,17:10,0.700,0.995,0.659,1.249,0.877,0.402,0.700,0.669,�k��,4.9,�L
2020/01/24,17:20,0.699,0.995,0.659,1.252,0.877,0.402,0.701,0.669,�k��,8.0,�L
2020/01/24,17:30,0.700,0.996,0.660,1.250,0.877,0.403,0.702,0.670,�k��,8.2,�L
2020/01/24,17:40,0.701,0.996,0.660,1.252,0.877,0.400,0.700,0.668,���k��,7.2,�L
2020/01/24,17:50,0.699,0.996,0.661,1.253,0.876,0.401,0.700,0.667,���k��,7.5,��
2020/01/24,18:00,0.699,0.996,0.660,1.251,0.877,0.402,0.701,0.668,�k��,6.6,�L
2020/01/24,18:10,0.699,0.995,0.661,1.249,0.877,0.399,0.703,0.668,�k��,7.4,��
2020/01/24,18:20,0.700,0.996,0.659,1.251,0.877,0.401,0.702,0.668,���k��,6.7,��
2020/01/24,18:30,0.700,0.997,0.659,1.251,0.876,0.402,0.701,0.668,���k��,5.2,�L
2020/01/24,18:40,0.699,0.994,0.661,1.250,0.877,0.400,0.701,0.668,�k��,4.3,�L
2020/01/24,18:50,0.700,0.997,0.659,1.248,0.877,0.401,0.703,0.667,�k��,5.0,��
2020/01/24,19:00,0.700,0.995,0.658,1.252,0.875,0.401,0.700,0.667,�k��,4.6,��
2020/01/24,19:10,0.700,0.995,0.660,1.252,0.879,0.398,0.700,0.667,�k��,5.5,��
2020/01/24,19:20,0.699,0.996,0.660,1.251,0.878,0.401,0.702,0.669,�k��,4.1,��
2020/01/24,19:30,0.701,0.997,0.658,1.249,0.877,0.401,0.703,0.668,�k��,4.9,��
2020/01/24,19:40,0.700,0.997,0.659,1.252,0.876,0.399,0.699,0.667,�k�k��,6.9,��
2020/01/24,19:50,0.699,0.998,0.657,1.250,0.877,0.399,0.702,0.668,�k��,6.0,��
2020/01/24,20:00,0.699,0.998,0.659,1.251,0.878,0.401,0.702,0.667,�k��,6.0,��
2020/01/24,20:10,0.701,0.996,0.660,1.249,0.877,0.400,0.704,0.669,�k��,5.3,��
2020/01/24,20:20,0.698,0.997,0.660,1.251,0.877,0.399,0.702,0.668,�k��,4.6,��
2020/01/24,20:30,0.698,0.996,0.658,1.252,0.877,0.400,0.701,0.668,�k�k��,4.9,��
2020/01/24,20:40,0.699,0.996,0.659,1.251,0.876,0.400,0.702,0.668,�k�k��,5.5,��
2020/01/24,20:50,0.698,0.996,0.660,1.248,0.877,0.400,0.704,0.667,�k��,4.2,��
2020/01/24,21:00,0.699,0.995,0.661,1.251,0.874,0.398,0.704,0.668,�k�k��,5.2,��
2020/01/24,21:10,0.698,0.995,0.661,1.250,0.878,0.400,0.701,0.667,�k��,4.5,��
2020/01/24,21:20,0.697,0.996,0.659,1.253,0.877,0.398,0.703,0.667,�k��,4.2,��
2020/01/24,21:30,0.699,0.993,0.659,1.250,0.876,0.398,0.702,0.668,�k��,4.3,��
2020/01/24,21:40,0.701,0.995,0.659,1.251,0.877,0.397,0.702,0.666,�k�k��,5.3,��
2020/01/24,21:50,0.696,0.995,0.660,1.252,0.879,0.400,0.703,0.665,�k��,3.8,��
2020/01/24,22:00,0.698,0.996,0.657,1.251,0.876,0.398,0.703,0.669,�k��,5.6,��
2020/01/24,22:10,0.696,0.998,0.658,1.251,0.877,0.400,0.703,0.668,�k��,6.0,��
2020/01/24,22:20,0.699,0.995,0.658,1.250,0.878,0.398,0.701,0.668,�k��,4.9,��
2020/01/24,22:30,0.696,0.995,0.659,1.250,0.877,0.398,0.702,0.669,�k�k��,5.5,��
2020/01/24,22:40,0.696,0.996,0.659,1.249,0.877,0.398,0.701,0.666,�k�k��,4.3,��
2020/01/24,22:50,0.696,0.996,0.658,1.248,0.879,0.397,0.701,0.668,�k�k��,4.9,��
2020/01/24,23:00,0.697,0.994,0.657,1.251,0.876,0.397,0.703,0.668,�k�k��,4.6,��
2020/01/24,23:10,0.697,0.993,0.658,1.251,0.874,0.399,0.700,0.667,�k�k��,3.8,��
2020/01/24,23:20,0.698,0.995,0.658,1.249,0.876,0.398,0.702,0.667,�k��,5.2,��
2020/01/24,23:30,0.695,0.996,0.657,1.248,0.876,0.398,0.702,0.666,�k��,5.3,��
2020/01/24,23:40,0.698,0.996,0.657,1.251,0.876,0.396,0.702,0.667,�k��,5.2,��
2020/01/24,23:50,0.695,0.995,0.658,1.249,0.878,0.396,0.702,0.666,�k��,5.8,��
